www.pogodaiklimat.ru

Погода и климат >> Архив погоды >> Россия >> Красноярский край >> Потапово


ПОГОДА в Потапово

  • Прогноз погоды в Потапово
  • Монитор погоды в Потапово

АРХИВ ПОГОДЫ в Потапово

Время (UTC), дата Ветер
(напр.,м/с)
 
Видим.   Явления Облачность Т
(С)
Тd
(С)
f
(%)
Тe
(С)
Тes
(С)
Комфортность P
(гПа)
Po
(гПа)
Тmin
(С)
Tmax
(С)
R
(мм)
R24
(мм)
S
(см)
00 12.01 ЮВ 1 50 км {снег} 3/0
[Ci fib]
-43.6 -46.1 76 -49 -49 опасность
обморожения
1015.8 -43.7 0.2 57
06 12.01 Ю 1 50 км 4/0
[Ci fib]
-42.5 -44.8 78 -48 -48 опасность
обморожения
1017.3
12 12.01 ЮВ 2 50 км 3/0
[Ci fib]
-43.5 -45.6 80 -53 -53 опасность
обморожения
1020.4 -40.1
18 12.01 ЮВ 3 50 км 3/0
[Ci fib]
-39.7 -41.6 82 -51 -51 опасность
обморожения
1020.3
06 13.01 ЮВ 6 2000 м снег {метель} 10/0 600 м
[As op]
-27.3 -29.8 79 -40 -40 опасность
обморожения
1011.3
12 13.01 Ю 5
{14}
10 км слаб. снег {метель} 10/0
[As trans]
-22.9 -25.4 80 -34 -34 опасность
обморожения
1009.3 -22.9 2
18 13.01 Ю 7-12
{12}
10 км слаб. снег {метель} 10/0 2000 м
[As op]
-19.1 -21.7 80 -31 -31 опасность
обморожения
1007.0
00 14.01 Ю 6
{12}
10 км слаб. снег {метель} 10/0 2000 м
[As op]
-19.3 -21.9 80 -30 -30 1005.9 -22.9 0.0 60
06 14.01 ЮВ 7-10
{12}
4000 м слаб. снег {метель} 10/0
[As op]
-18.3 -20.9 80 -30 -30 1004.8
09 14.01 ЮВ 7-10
{12}
4000 м слаб. снег {метель} 10/0
[As op]
-18.3 -20.9 80 -30 -30 1004.8
12 14.01 ЮВ 5
{10}
10 км слаб. снег {метель} 10/0 2000 м
[As op]
-17.0 -19.6 80 -26 -26 1005.2 -17.0 0.6
18 14.01 ЮВ 5 10 км слаб. снег {метель} 10/10 600 м
[Sc]
-14.0 -16.0 85 -23 -23 1003.0
00 15.01 ЮВ 5 10 км слаб. снег {метель} 10/10 600 м
[Sc]
-11.4 -13.4 85 -19 -19 1001.6 -17.0 0.9 61
06 15.01 ЮВ 4 10 км слаб. снег {метель} 10/10 600 м
[Sc]
-10.2 -11.5 90 -17 -17 997.6
09 15.01 ЮВ 4 10 км слаб. снег {метель} 10/10 600 м
[Sc]
-10.2 -11.5 90 -17 -17 997.6
12 15.01 ЮВ 5 10 км слаб. снег {метель} 10/10 600 м
[Sc]
-10.0 -11.3 90 -18 -18 992.5 -10.0 3
15 15.01 ЮВ 5 10 км слаб. снег {метель} 10/10 600 м
[Sc]
-10.0 -11.3 90 -18 -18 992.5 -10.0 3
18 15.01 Ю 4 10 км слаб. снег {метель} 10/10 600 м
[Sc]
-9.6 -11.2 88 -17 -17 988.6
00 16.01 З 3 20 км слаб. снег 10/10 600 м
[Sc]
-13.2 -14.5 90 -19 -19 992.5 -13.2 3 70
06 16.01 ЮЗ 3 4000 м слаб. снег 10/0
[As op]
-11.9 -13.2 90 -18 -18 997.4
12 16.01 Ю 2 10 км слаб. снег 10/0
[As trans]
-19.2 -20.4 90 -25 -25 1001.0 -10.1 2
18 16.01 ЮВ 2 10 км слаб. снег 10/0 2000 м
[As trans]
-19.2 -20.4 90 -25 -25 1002.2
00 17.01 ЮВ 1 50 км {снег} ясно -24.7 -25.9 90 -28 -28 1004.7 -24.7 0.6 71
06 17.01 Ю 3 10 км слаб. снег 10/10 600 м
[Sc]
-20.0 -21.2 90 -28 -28 1008.7
12 17.01 Ю 3 10 км слаб. снег 10/0 2000 м
[As trans]
-21.9 -23.1 90 -30 -30 1011.3 -20.0 0.3
18 17.01 ЮВ 6 10 км слаб. снег {метель} 10/0 2000 м
[As trans]
-18.5 -19.7 90 -29 -29 1007.6
21 17.01 ЮВ 6 10 км слаб. снег {метель} 10/0
[As trans]
-18.5 -19.7 90 -29 -29 1007.6
00 18.01 Ю 7-10
{12}
4000 м слаб. снег {метель} 10/0
[As trans]
-12.0 -13.3 90 -21 -21 999.3 -21.9 2 72
03 18.01 Ю 7-10
{12}
4000 м слаб. снег {метель} 10/0
[As trans]
-12.0 -13.3 90 -21 -21 999.3 -21.9 2 72
06 18.01 Ю 8-12
{13}
4000 м слаб. снег {метель} 10/0
[As op]
-10.5 -11.8 90 -20 -20 994.7
09 18.01 Ю 8-12
{13}
4000 м слаб. снег {метель} 10/0
[As op]
-10.5 -11.8 90 -20 -20 994.7
12 18.01 Ю 8-12
{13}
4000 м слаб. снег {метель} 10/0 2000 м
[As op]
-9.0 -10.1 92 -19 -19 992.9 -8.7 0.9

 

Местоположение метеостанции Потапово (Красноярский край, Россия): широта 68.67 долгота 86.25 высота над уровнем моря 41 м.

В архиве по умолчанию представлена погода в Потапово за последнюю неделю. Архивные данные за месяц целиком и за предыдущие месяцы, начиная с января 2011 года, Вы можете получить, выбрав интересующий диапазон дат из раскрывающегося списка и нажав кнопку "Ввод!".


*Определитесь, кто Вы:
робот инопланетянин человек

Внимание! Время в таблицах - всемирное. Для получения местного времени необходимо прибавить поправку, которая равна 7 ч.

Смотрите также архив погоды в соседних городах и на ближайших метеорологических станциях:

Погода в Снежногорске (Красноярский край, Россия) (89 км)
Погода в Норильске (Красноярский край, Россия) (110 км)
Погода в Игарке (Красноярский край, Россия) (134 км)
Погода в Горбиачине (Красноярский край, Россия) (148 км)
Погода в Карауле (Красноярский край, Россия) (198 км)
Погода в Светлогорске (Красноярский край, Россия) (212 км)
Погода в Советской Речке (Красноярский край, Россия) (230 км)
Погода в Курейке (Красноярский край, Россия) (248 км)
Погода в Крестах Таймырских (Красноярский край, Россия) (281 км)
Погода в Туруханске (Красноярский край, Россия) (329 км)

Пояснения к столбцам:

Ветер - указаны скорость ветра в м/с - средняя за 10 мин, порывы в срок и между сроками (в фигурных скобках) и направление, откуда дует ветер: С - северный, СВ - северо-восточный, В - восточный, ЮВ - юго-восточный, Ю - южный, ЮЗ - юго-западный, З - западный, СЗ - северо-западный.
Видимость - горизонтальная дальность видимости в метрах или километрах. При видимости от 1 до 10 км при отсутствии осадков обычно наблюдается дымка, при ухудшении видимости до 1 км и менее - туман. В сухую погоду видимость может ухудшаться дымом, пылью или мглою.
Явления - указаны атмосферные явления, наблюдавшиеся в срок или в последний час перед сроком; фигурными скобками обозначены явления, наблюдавшиеся между сроками (за 1-3 часа до срока); квадратными скобками обозначены град или гололедные отложения с указанием их диаметра в мм.
Облачность - указаны через наклонную черту общая и нижняя облачность в баллах и высота нижней границы облаков в метрах; квадратными скобками обозначены формы облаков: Ci - перистые, Cs - перисто-слоистые, Cc - перисто-кучевые, Ac - высококучевые, As - высокослоистые, Sc - слоисто-кучевые, Ns - слоисто-дождевые, Cu - кучевые, Cb - кучево-дождевые. Подробнее классификацию облаков см. в Атласе облаков (PDF).
T - Температура воздуха - температура, измеренная на высоте 2 м над землей.
Td - Температура точки росы - температура, при понижении до которой содержащийся в воздухе водяной пар достигнет насыщения.
f - Относительная влажность воздуха - влажноcть воздуха, измеренная на высоте 2 м над землей.
Te - Эффективная температура - температура, которую ощущает одетый по сезону человек в тени. Характеристика душности погоды. При расчете учитывается влияние влажности воздуха и скорости ветра на теплоощущения человека.
Tes - Эффективная температура на солнце - температура, которую ощущает человек, с поправкой на солнечный нагрев. Характеристика знойности погоды. Зависит от высоты солнца над горизонтом, облачности и скорости ветра. Ночью, в пасмурную погоду, а также при ветре 12 м/с и более поправка равна нулю.
P - Атмосферное давление - приведенное к уровню моря атмосферное давление.
Po - Атмосферное давление - измеренное на уровне метеостанции атмосферное давление.
Tmin - Минимальная температура - минимум температуры воздуха на высоте 2 м над землей.
Tmax - Максимальная температура - максимум температуры воздуха на высоте 2 м над землей.
R - Количество осадков - Количество выпавших осадков за период времени, мм. При наведении курсора мыши на число - период времени, за который выпало указанное количество осадков.
R24 - Количество осадков - Количество выпавших осадков за 24 часа, мм.
S - Снежный покров - Высота снежного покрова, см. При наведении курсора мыши на число - состояние снежного покрова и степень покрытия местности в баллах.